Location: Alfortville
(48.8058°N, 2.4204°E)
Time: 13:01:30
(UTC+00:00)

H-2A R/B - Pass Details

Date: 24 October 2021
Orbit: 732 x 837 km, 98.2° (Epoch: 05 December)

Event Time Altitude Azimuth Distance (km) Brightness Sun altitude
Rises 17:35:03 0° 160° (SSE) 3,348 5.2 -9.1°
Reaches altitude 10° 17:37:23 10° 159° (SSE) 2,428 4.5 -9.5°
Maximum altitude 17:42:48 80° 73° (ENE) 856 2.1 -10.4°
Drops below altitude 10° 17:48:17 10° 348° (NNW) 2,463 4.7 -11.3°
Sets 17:50:39 0° 348° (NNW) 3,399 5.4 -11.7°
